COSMOS 1275 DEB, 12694

Orbit data source: Space-Track

COSMOS 1275 DEB, 12694 is space debris in LEO originally from a launch on Thu, 04 Jun 1981 UTC launched from the Plesetsk Missile And Space Complex (PKMTR). Debris objects in space refer to the collection of defunct objects orbiting the Earth. Examples of debris include non-operational satellites, rocket bodies, and fragments generated from explosions, collisions, or faulty payload assembly.

Loading next visibility...
Identifier
12694, 1981-053AN
Orbit
LEO
Country
Flag of CISCIS
Related business
Manufacturer
Unknown
Mission
Spacecraft
Bus & Motor
Unknown
Mass
Unknown
Launch date (UTC)
1981-06-04 (45 years ago)
Launch vehicle
Unknown
Launch site
Plesetsk Missile And Space Complex (PKMTR)
Object type
Payload
Rocket body
Debris
Shape & HBR
Unknown shape, 0.2 m
Radar Cross Section
Small (<0.1 m²)

Expand to show TLE details & history
Last TLE update: 9 hours ago

TLE from 9 hours ago
0 COSMOS 1275 DEB
1 12694U 81053AN  25346.93155331  .00000715  00000-0  86491-3 0  9993
2 12694  83.0815 232.2356 0116130  34.3062 342.3799 13.62244371197616
Epoch: 2025-12-12T22:21Z
TLE epoch observation values (Epoch: 2025-12-12T22:21:26.205Z)
Latitude
16.13782°
Longitude
177.01186°
Altitude
947.887 km
Speed
7.42 km/s
True Right ascension
15h 36m 56s
True Declination
16° 02' 55"
Sunlit
Object was in daylight at epoch
Visualization orbit readout
Latitude
Unknown
Longitude
Unknown
Altitude
Unknown
Speed
Unknown
Apparent Right ascension
Unknown
Apparent Declination
Unknown
Sunlit
N/A
Visualization observer readout
Local Sidereal Time
05:21:55
Azimuth
Unknown
Elevation
Unknown
Doppler factor
Unknown
Orbital elements
Apogee altitude
1,110.677 km
Perigee altitude
938.738 km
Semi-major axis
7,402.844 km
Eccentricity
0.01161
Inclination
83.0815°
RAAN
232.2356°
Arg. of periapsis
34.3062°
True anomaly
341.97143°
Mean anomaly
342.3799°
Eccentric anomaly
342.17623°
Mean motion
3.40757 °/min
Orbital period
105.65 mins
BSTAR
0.00086491
Loading maneuver chart data...
Computing Atmospheric mass density...
Loading historical data...
Loading historical data...
Loading historical data...
Loading historical data...
Loading historical data...
Loading historical data...
Loading historical data...

Documentation

Showing up to 5 results
|